| time (UTC) | temp F | wind direction | speed knots | gust knots | rain 1hr in | rain 24hr in | rain mn in | humidity % | barometer mb |
| 20260831110006 | 59 | 355 | 0.9 | 5.2 | 0.00 | 0.01 | 0.01 | 89 | 1028.8 |
| 20260831105506 | 59 | 263 | 0.9 | 4.3 | 0.00 | 0.01 | 0.01 | 89 | 1028.8 |
| 20260831105006 | 59 | 286 | 1.7 | 4.3 | 0.00 | 0.01 | 0.01 | 88 | 1028.8 |
| 20260831104506 | 59 | 11 | 0.0 | 3.5 | 0.00 | 0.01 | 0.01 | 88 | 1028.8 |
| 20260831104005 | 59 | 336 | 0.9 | 3.5 | 0.00 | 0.01 | 0.01 | 88 | 1028.8 |
| 20260831103507 | 59 | 284 | 0.0 | 4.3 | 0.00 | 0.01 | 0.01 | 87 | 1028.8 |
| 20260831103005 | 59 | 297 | 0.9 | 4.3 | 0.00 | 0.01 | 0.01 | 87 | 1028.8 |
| 20260831102505 | 59 | 288 | 0.9 | 3.5 | 0.00 | 0.01 | 0.01 | 87 | 1028.8 |
| 20260831102005 | 59 | 254 | 0.9 | 3.5 | 0.00 | 0.01 | 0.01 | 87 | 1028.8 |
| 20260831101505 | 59 | 267 | 0.0 | 2.6 | 0.00 | 0.01 | 0.01 | 86 | 1028.8 |
| 20260831101005 | 60 | 275 | 0.9 | 4.3 | 0.00 | 0.01 | 0.01 | 86 | 1028.8 |
| 20260831100504 | 60 | 317 | 0.9 | 4.3 | 0.00 | 0.01 | 0.01 | 86 | 1028.9 |
| 20260831100004 | 60 | 327 | 0.9 | 3.5 | 0.00 | 0.01 | 0.01 | 86 | 1028.9 |
| 20260831095503 | 60 | 304 | 0.9 | 2.6 | 0.00 | 0.01 | 0.01 | 86 | 1028.9 |
| 20260831095003 | 60 | 271 | 0.9 | 3.5 | 0.00 | 0.01 | 0.01 | 86 | 1028.8 |
| 20260831094504 | 60 | 325 | 0.9 | 3.5 | 0.00 | 0.01 | 0.01 | 86 | 1028.9 |
| 20260831094003 | 60 | 279 | 0.0 | 3.5 | 0.00 | 0.01 | 0.01 | 85 | 1028.9 |
| 20260831093506 | 60 | 282 | 0.9 | 3.5 | 0.00 | 0.01 | 0.01 | 86 | 1028.9 |
| 20260831093004 | 60 | 340 | 0.0 | 4.3 | 0.00 | 0.01 | 0.01 | 86 | 1028.9 |
| 20260831092504 | 60 | 272 | 0.9 | 4.3 | 0.00 | 0.01 | 0.01 | 85 | 1028.9 |
| 20260831092002 | 60 | 347 | 0.0 | 2.6 | 0.00 | 0.01 | 0.01 | 85 | 1028.9 |
| 20260831091507 | 60 | 286 | 0.0 | 6.1 | 0.00 | 0.01 | 0.01 | 85 | 1028.9 |
| 20260831091002 | 60 | 311 | 1.7 | 6.1 | 0.00 | 0.01 | 0.01 | 85 | 1028.9 |
| 20260831090502 | 60 | 290 | 0.9 | 3.5 | 0.00 | 0.01 | 0.01 | 85 | 1028.8 |
| 20260831090002 | 61 | 304 | 0.0 | 5.2 | 0.00 | 0.01 | 0.01 | 85 | 1028.8 |
| 20260831085501 | 61 | 281 | 0.9 | 5.2 | 0.00 | 0.01 | 0.01 | 84 | 1028.8 |
| 20260831085001 | 61 | 296 | 0.9 | 3.5 | 0.00 | 0.01 | 0.01 | 84 | 1028.7 |
| 20260831084501 | 61 | 285 | 0.0 | 3.5 | 0.00 | 0.01 | 0.01 | 84 | 1028.6 |
| 20260831084002 | 61 | 13 | 0.9 | 3.5 | 0.00 | 0.01 | 0.01 | 84 | 1028.6 |
| 20260831083502 | 61 | 339 | 0.0 | 3.5 | 0.00 | 0.01 | 0.01 | 83 | 1028.6 |
| 20260831083110 | 61 | 327 | 0.9 | 2.6 | 0.00 | 0.01 | 0.01 | 83 | 1028.5 |
| 20260831082600 | 61 | 333 | 0.0 | 2.6 | 0.00 | 0.01 | 0.01 | 83 | 1028.5 |
| 20260831082502 | 61 | 333 | 0.9 | 2.6 | 0.00 | 0.01 | 0.01 | 83 | 1028.5 |
| 20260831082002 | 61 | 344 | 0.0 | 2.6 | 0.00 | 0.01 | 0.01 | 82 | 1028.5 |
| 20260831081607 | 61 | 314 | 0.0 | 2.6 | 0.00 | 0.01 | 0.01 | 82 | 1028.5 |
| 20260831081101 | 61 | 355 | 0.0 | 3.5 | 0.00 | 0.01 | 0.01 | 82 | 1028.5 |
| 20260831080604 | 61 | 321 | 0.9 | 4.3 | 0.00 | 0.01 | 0.01 | 81 | 1028.5 |
| 20260831080100 | 61 | 66 | 0.0 | 4.3 | 0.00 | 0.01 | 0.01 | 80 | 1028.6 |
| 20260831075600 | 62 | 325 | 0.0 | 3.5 | 0.00 | 0.01 | 0.01 | 79 | 1028.6 |
| 20260831075100 | 62 | 332 | 0.0 | 3.5 | 0.00 | 0.01 | 0.01 | 78 | 1028.5 |
| 20260831074606 | 62 | 64 | 0.0 | 1.7 | 0.00 | 0.01 | 0.01 | 77 | 1028.5 |
| 20260831074102 | 63 | 341 | 0.0 | 2.6 | 0.00 | 0.01 | 0.01 | 76 | 1028.5 |
| 20260831073559 | 63 | 313 | 0.0 | 2.6 | 0.00 | 0.01 | 0.01 | 75 | 1028.5 |
| 20260831073100 | 64 | 309 | 0.0 | 2.6 | 0.00 | 0.01 | 0.01 | 74 | 1028.4 |
| 20260831072559 | 64 | 212 | 0.0 | 3.5 | 0.00 | 0.01 | 0.01 | 73 | 1028.4 |
| 20260831072058 | 64 | 337 | 0.9 | 3.5 | 0.00 | 0.01 | 0.01 | 72 | 1028.4 |
| 20260831071559 | 65 | 293 | 0.0 | 1.7 | 0.00 | 0.01 | 0.01 | 72 | 1028.3 |
| 20260831071058 | 65 | 42 | 0.0 | 0.9 | 0.00 | 0.01 | 0.01 | 71 | 1028.3 |
| 20260831070558 | 65 | 42 | 0.0 | 2.6 | 0.00 | 0.01 | 0.01 | 70 | 1028.2 |
| 20260831065557 | 65 | 87 | 0.0 | 2.6 | 0.00 | 0.01 | 0.01 | 68 | 1028.3 |
| 20260831065057 | 66 | 76 | 0.0 | 2.6 | 0.00 | 0.01 | 0.01 | 66 | 1028.3 |
| 20260831064558 | 66 | 59 | 0.0 | 4.3 | 0.00 | 0.01 | 0.01 | 65 | 1028.2 |
| 20260831064059 | 66 | 30 | 0.9 | 3.5 | 0.00 | 0.01 | 0.01 | 63 | 1028.2 |
| 20260831063557 | 67 | 360 | 0.0 | 7.0 | 0.00 | 0.01 | 0.01 | 62 | 1028.1 |
| 20260831063057 | 67 | 82 | 0.9 | 7.0 | 0.00 | 0.01 | 0.01 | 60 | 1028.2 |
| 20260831062557 | 67 | 60 | 0.0 | 3.5 | 0.00 | 0.01 | 0.01 | 59 | 1028.1 |
| 20260831062058 | 67 | 123 | 0.9 | 7.0 | 0.00 | 0.01 | 0.01 | 58 | 1028.0 |
| 20260831061558 | 67 | 266 | 2.6 | 7.0 | 0.00 | 0.01 | 0.01 | 57 | 1028.0 |
| 20260831061056 | 67 | 89 | 0.0 | 3.5 | 0.00 | 0.01 | 0.01 | 63 | 1028.0 |
| 20260831060555 | 67 | 24 | 0.9 | 3.5 | 0.00 | 0.01 | 0.01 | 62 | 1028.0 |
| 20260831060055 | 68 | 65 | 0.9 | 3.5 | 0.00 | 0.01 | 0.01 | 61 | 1028.0 |
| 20260831055556 | 68 | 329 | 0.0 | 3.5 | 0.00 | 0.01 | 0.01 | 60 | 1028.0 |
| 20260831055059 | 68 | 328 | 0.9 | 4.3 | 0.00 | 0.01 | 0.01 | 58 | 1027.9 |
| 20260831054556 | 68 | 49 | 1.7 | 7.0 | 0.00 | 0.01 | 0.01 | 58 | 1027.9 |
| 20260831054056 | 68 | 67 | 0.9 | 3.5 | 0.00 | 0.01 | 0.01 | 57 | 1028.0 |
| 20260831053558 | 69 | 68 | 0.9 | 3.5 | 0.00 | 0.01 | 0.01 | 54 | 1027.9 |
| 20260831053055 | 69 | 94 | 0.9 | 7.8 | 0.00 | 0.01 | 0.01 | 53 | 1028.0 |
| 20260831052555 | 69 | 78 | 2.6 | 7.8 | 0.00 | 0.01 | 0.01 | 51 | 1028.0 |
| 20260831052052 | 70 | 90 | 1.7 | 6.1 | 0.00 | 0.01 | 0.01 | 52 | 1028.0 |
| 20260831051602 | 70 | 254 | 0.9 | 3.5 | 0.00 | 0.01 | 0.01 | 53 | 1027.9 |
| 20260831051052 | 70 | 38 | 1.7 | 5.2 | 0.00 | 0.01 | 0.01 | 52 | 1027.9 |
| 20260831050552 | 70 | 71 | 0.9 | 5.2 | 0.00 | 0.01 | 0.01 | 52 | 1027.9 |
| 20260831050052 | 70 | 99 | 0.9 | 5.2 | 0.00 | 0.01 | 0.01 | 52 | 1027.9 |
| 20260831045551 | 71 | 116 | 0.9 | 5.2 | 0.00 | 0.01 | 0.01 | 52 | 1027.9 |
| 20260831045054 | 71 | 82 | 1.7 | 7.0 | 0.00 | 0.01 | 0.01 | 51 | 1027.9 |
| 20260831044609 | 71 | 171 | 0.9 | 7.8 | 0.00 | 0.01 | 0.01 | 52 | 1027.9 |
| 20260831044049 | 71 | 311 | 0.9 | 7.8 | 0.00 | 0.01 | 0.01 | 53 | 1027.9 |
| 20260831043549 | 72 | 61 | 1.7 | 6.1 | 0.00 | 0.01 | 0.01 | 52 | 1027.9 |
| 20260831043049 | 72 | 53 | 1.7 | 4.3 | 0.00 | 0.01 | 0.01 | 52 | 1027.9 |
| 20260831042548 | 72 | 302 | 0.0 | 3.5 | 0.00 | 0.01 | 0.01 | 53 | 1028.0 |
| 20260831042047 | 72 | 79 | 0.9 | 3.5 | 0.00 | 0.01 | 0.01 | 52 | 1028.0 |
| 20260831041558 | 72 | 100 | 0.9 | 5.2 | 0.00 | 0.01 | 0.01 | 53 | 1028.0 |
| 20260831041047 | 73 | 123 | 1.7 | 5.2 | 0.00 | 0.01 | 0.01 | 53 | 1028.1 |
| 20260831040545 | 72 | 325 | 1.7 | 3.5 | 0.00 | 0.01 | 0.01 | 53 | 1028.1 |
| 20260831040044 | 72 | 83 | 0.0 | 2.6 | 0.00 | 0.01 | 0.01 | 55 | 1028.2 |
| 20260831035542 | 72 | 122 | 0.0 | 4.3 | 0.00 | 0.01 | 0.01 | 56 | 1028.2 |
| 20260831035042 | 72 | 294 | 0.9 | 7.0 | 0.00 | 0.01 | 0.01 | 53 | 1028.3 |
| 20260831034541 | 72 | 252 | 0.9 | 7.0 | 0.00 | 0.01 | 0.01 | 54 | 1028.3 |
| 20260831034041 | 72 | 322 | 0.9 | 5.2 | 0.00 | 0.01 | 0.01 | 54 | 1028.3 |
| 20260831033540 | 72 | 250 | 0.9 | 7.0 | 0.00 | 0.01 | 0.01 | 52 | 1028.4 |
| 20260831033041 | 72 | 275 | 2.6 | 7.0 | 0.00 | 0.01 | 0.01 | 52 | 1028.4 |
| 20260831032539 | 72 | 313 | 2.6 | 5.2 | 0.00 | 0.01 | 0.01 | 54 | 1028.5 |
| 20260831032038 | 71 | 190 | 0.9 | 5.2 | 0.00 | 0.01 | 0.01 | 53 | 1028.6 |
| 20260831031539 | 71 | 265 | 1.7 | 7.8 | 0.00 | 0.01 | 0.01 | 55 | 1028.6 |
| 20260831031036 | 72 | 298 | 3.5 | 7.0 | 0.00 | 0.01 | 0.01 | 53 | 1028.7 |
| 20260831030534 | 72 | 328 | 0.0 | 5.2 | 0.00 | 0.01 | 0.01 | 57 | 1028.7 |
| 20260831030033 | 72 | 322 | 1.7 | 5.2 | 0.00 | 0.01 | 0.01 | 56 | 1028.9 |
| 20260831025531 | 71 | 286 | 0.9 | 6.1 | 0.00 | 0.01 | 0.01 | 57 | 1029.0 |
| 20260831025031 | 70 | 293 | 0.9 | 9.6 | 0.00 | 0.01 | 0.01 | 57 | 1029.0 |
| 20260831024530 | 70 | 276 | 1.7 | 9.6 | 0.00 | 0.01 | 0.01 | 58 | 1029.2 |
| 20260831024027 | 70 | 265 | 0.9 | 6.1 | 0.00 | 0.01 | 0.01 | 59 | 1029.2 |
| 20260831023528 | 69 | 335 | 0.9 | 8.7 | 0.00 | 0.01 | 0.01 | 59 | 1029.4 |
| 20260831023027 | 69 | 265 | 3.5 | 8.7 | 0.00 | 0.01 | 0.01 | 59 | 1029.4 |
| 20260831022526 | 70 | 282 | 1.7 | 4.3 | 0.00 | 0.01 | 0.01 | 60 | 1029.5 |
| 20260831022026 | 70 | 5 | 0.9 | 3.5 | 0.00 | 0.01 | 0.01 | 60 | 1029.5 |
| 20260831021525 | 69 | 211 | 0.0 | 4.3 | 0.00 | 0.01 | 0.01 | 62 | 1029.6 |
| 20260831021023 | 69 | 325 | 1.7 | 7.0 | 0.00 | 0.01 | 0.01 | 62 | 1029.7 |
| 20260831020522 | 69 | 245 | 1.7 | 7.0 | 0.00 | 0.01 | 0.01 | 63 | 1029.7 |
| 20260831020022 | 68 | 321 | 1.7 | 7.0 | 0.00 | 0.01 | 0.01 | 62 | 1029.8 |
| 20260831015520 | 69 | 162 | 2.6 | 7.0 | 0.00 | 0.01 | 0.01 | 62 | 1029.9 |
| 20260831015019 | 68 | 257 | 1.7 | 5.2 | 0.00 | 0.01 | 0.01 | 64 | 1030.0 |
| 20260831014519 | 68 | 117 | 0.9 | 7.0 | 0.00 | 0.01 | 0.01 | 63 | 1030.1 |
| 20260831014019 | 68 | 294 | 3.5 | 7.0 | 0.00 | 0.01 | 0.01 | 64 | 1030.2 |
| 20260831013520 | 68 | 281 | 2.6 | 7.0 | 0.00 | 0.01 | 0.01 | 65 | 1030.2 |
| 20260831013017 | 67 | 107 | 0.0 | 6.1 | 0.00 | 0.01 | 0.01 | 65 | 1030.3 |
| 20260831012516 | 67 | 240 | 2.6 | 7.8 | 0.00 | 0.01 | 0.01 | 63 | 1030.3 |
| 20260831012014 | 67 | 217 | 2.6 | 7.0 | 0.00 | 0.01 | 0.01 | 64 | 1030.4 |
| 20260831011515 | 67 | 320 | 2.6 | 5.2 | 0.00 | 0.01 | 0.01 | 63 | 1030.5 |
| 20260831011013 | 67 | 301 | 0.9 | 4.3 | 0.00 | 0.01 | 0.01 | 63 | 1030.5 |
| 20260831010513 | 67 | 298 | 1.7 | 7.8 | 0.00 | 0.01 | 0.01 | 64 | 1030.6 |
| 20260831010014 | 67 | 269 | 2.6 | 7.8 | 0.00 | 0.01 | 0.01 | 64 | 1030.6 |
| 20260831005511 | 67 | 232 | 0.0 | 3.5 | 0.00 | 0.01 | 0.01 | 66 | 1030.6 |
| 20260831005010 | 67 | 76 | 0.0 | 3.5 | 0.00 | 0.01 | 0.01 | 66 | 1030.7 |
| 20260831004509 | 66 | 28 | 1.7 | 3.5 | 0.00 | 0.01 | 0.01 | 68 | 1030.7 |
| 20260831004008 | 66 | 105 | 0.0 | 3.5 | 0.00 | 0.01 | 0.01 | 69 | 1030.7 |
| 20260831003506 | 65 | 304 | 0.9 | 4.3 | 0.00 | 0.01 | 0.01 | 71 | 1030.9 |
| 20260831003005 | 65 | 308 | 1.7 | 8.7 | 0.00 | 0.01 | 0.01 | 72 | 1030.8 |
| 20260831002504 | 65 | 349 | 1.7 | 8.7 | 0.00 | 0.01 | 0.01 | 73 | 1030.9 |
| 20260831002003 | 65 | 317 | 3.5 | 7.0 | 0.00 | 0.01 | 0.01 | 74 | 1030.8 |
| 20260831001502 | 65 | 251 | 2.6 | 7.8 | 0.00 | 0.01 | 0.01 | 75 | 1030.8 |
| 20260831001001 | 64 | 327 | 3.5 | 9.6 | 0.00 | 0.01 | 0.01 | 75 | 1030.7 |
| 20260831000603 | 64 | 319 | 3.5 | 9.6 | 0.00 | 0.01 | 0.01 | 76 | 1030.8 |
| 20260830235559 | 64 | 14 | 3.5 | 8.7 | 0.00 | 0.01 | 0.01 | 79 | 1030.7 |
| 20260830235057 | 63 | 240 | 3.5 | 8.7 | 0.00 | 0.01 | 0.01 | 79 | 1030.8 |
| 20260830234602 | 63 | 273 | 2.6 | 5.2 | 0.00 | 0.01 | 0.01 | 79 | 1030.8 |
| 20260830234054 | 63 | 271 | 0.9 | 5.2 | 0.00 | 0.01 | 0.01 | 81 | 1030.7 |
| 20260830233556 | 62 | 311 | 1.7 | 4.3 | 0.00 | 0.01 | 0.01 | 81 | 1030.7 |
| 20260830233052 | 62 | 300 | 2.6 | 6.1 | 0.00 | 0.01 | 0.01 | 82 | 1030.8 |
| 20260830232553 | 62 | 241 | 2.6 | 6.1 | 0.00 | 0.01 | 0.01 | 82 | 1030.8 |
| 20260830232050 | 62 | 274 | 2.6 | 6.1 | 0.00 | 0.01 | 0.01 | 82 | 1030.8 |
| 20260830231550 | 62 | 259 | 2.6 | 6.1 | 0.00 | 0.01 | 0.01 | 83 | 1030.7 |
| 20260830231048 | 61 | 320 | 2.6 | 6.1 | 0.00 | 0.01 | 0.01 | 83 | 1030.7 |
| 20260830230547 | 61 | 298 | 0.9 | 4.3 | 0.00 | 0.01 | 0.01 | 84 | 1030.7 |
| 20260830230048 | 61 | 257 | 0.0 | 3.5 | 0.00 | 0.01 | 0.01 | 84 | 1030.7 |
| 20260830225646 | 61 | 346 | 0.9 | 3.5 | 0.00 | 0.01 | 0.01 | 85 | 1030.6 |
| 20260830225044 | 60 | 274 | 0.0 | 1.7 | 0.00 | 0.01 | 0.01 | 86 | 1030.6 |
| 20260830224543 | 60 | 317 | 0.0 | 2.6 | 0.00 | 0.01 | 0.01 | 87 | 1030.7 |
| 20260830224042 | 60 | 317 | 0.0 | 2.6 | 0.00 | 0.01 | 0.01 | 87 | 1030.7 |
| 20260830223542 | 59 | 295 | 0.0 | 2.6 | 0.00 | 0.01 | 0.01 | 87 | 1030.6 |
| 20260830223042 | 59 | 287 | 0.0 | 0.9 | 0.00 | 0.01 | 0.01 | 88 | 1030.7 |
| 20260830222539 | 59 | 287 | 0.0 | 0.0 | 0.00 | 0.01 | 0.01 | 88 | 1030.7 |
| 20260830222042 | 58 | 287 | 0.0 | 1.7 | 0.00 | 0.01 | 0.01 | 89 | 1030.6 |
| 20260830221540 | 58 | 286 | 0.0 | 1.7 | 0.00 | 0.01 | 0.01 | 89 | 1030.6 |
| 20260830221040 | 58 | 319 | 0.0 | 2.6 | 0.00 | 0.01 | 0.01 | 90 | 1030.6 |
| 20260830220534 | 57 | 319 | 1.7 | 2.6 | 0.00 | 0.01 | 0.01 | 90 | 1030.5 |
| 20260830220033 | 57 | 311 | 1.7 | 2.6 | 0.00 | 0.01 | 0.01 | 90 | 1030.5 |
| 20260830215532 | 56 | 310 | 0.0 | 2.6 | 0.00 | 0.01 | 0.01 | 91 | 1030.5 |
| 20260830215033 | 56 | 310 | 0.9 | 2.6 | 0.00 | 0.01 | 0.01 | 91 | 1030.5 |
| 20260830214530 | 56 | 311 | 0.0 | 2.6 | 0.00 | 0.01 | 0.01 | 92 | 1030.5 |
| 20260830214028 | 55 | 305 | 0.0 | 1.7 | 0.00 | 0.01 | 0.01 | 91 | 1030.4 |
| 20260830213528 | 55 | 305 | 0.9 | 2.6 | 0.00 | 0.01 | 0.01 | 91 | 1030.4 |
| 20260830213028 | 55 | 304 | 0.9 | 3.5 | 0.00 | 0.01 | 0.01 | 91 | 1030.4 |
| 20260830212527 | 54 | 307 | 1.7 | 3.5 | 0.00 | 0.01 | 0.01 | 91 | 1030.3 |
| 20260830212027 | 54 | 315 | 1.7 | 3.5 | 0.00 | 0.01 | 0.01 | 92 | 1030.3 |
| 20260830211527 | 54 | 302 | 1.7 | 3.5 | 0.00 | 0.01 | 0.01 | 92 | 1030.3 |
| 20260830211026 | 54 | 309 | 1.7 | 3.5 | 0.00 | 0.01 | 0.01 | 92 | 1030.2 |
| 20260830210526 | 54 | 317 | 1.7 | 4.3 | 0.00 | 0.01 | 0.01 | 92 | 1030.1 |
| 20260830210024 | 53 | 343 | 2.6 | 4.3 | 0.00 | 0.01 | 0.01 | 92 | 1030.1 |
| 20260830205523 | 53 | 322 | 1.7 | 3.5 | 0.00 | 0.01 | 0.01 | 92 | 1030.0 |
| 20260830205022 | 53 | 317 | 1.7 | 3.5 | 0.00 | 0.01 | 0.01 | 92 | 1029.9 |
| 20260830204523 | 53 | 283 | 0.9 | 3.5 | 0.00 | 0.01 | 0.01 | 92 | 1029.8 |
| 20260830204022 | 53 | 309 | 1.7 | 3.5 | 0.00 | 0.01 | 0.01 | 92 | 1029.7 |
| 20260830203623 | 53 | 318 | 1.7 | 3.5 | 0.00 | 0.01 | 0.01 | 92 | 1029.6 |
| 20260830203042 | 53 | 325 | 1.7 | 3.5 | 0.00 | 0.01 | 0.01 | 92 | 1029.6 |
| 20260830202521 | 53 | 321 | 1.7 | 3.5 | 0.00 | 0.01 | 0.01 | 92 | 1029.6 |
| 20260830202020 | 53 | 311 | 1.7 | 3.5 | 0.00 | 0.01 | 0.01 | 93 | 1029.5 |
| 20260830201521 | 52 | 294 | 0.0 | 0.0 | 0.00 | 0.01 | 0.01 | 93 | 1029.5 |
| 20260830201023 | 52 | 293 | 0.0 | 0.0 | 0.00 | 0.01 | 0.01 | 94 | 1029.6 |
| 20260830200520 | 52 | 293 | 0.0 | 0.0 | 0.00 | 0.01 | 0.01 | 94 | 1029.6 |
| 20260830200020 | 52 | 293 | 0.0 | 0.0 | 0.00 | 0.01 | 0.01 | 94 | 1029.5 |
| 20260830195519 | 52 | 293 | 0.0 | 0.0 | 0.00 | 0.01 | 0.01 | 94 | 1029.5 |
| 20260830195019 | 52 | 293 | 0.0 | 0.0 | 0.00 | 0.01 | 0.01 | 95 | 1029.3 |
| 20260830194519 | 52 | 293 | 0.0 | 0.0 | 0.00 | 0.01 | 0.01 | 95 | 1029.2 |
| 20260830194019 | 52 | 293 | 0.0 | 0.0 | 0.00 | 0.01 | 0.01 | 95 | 1029.3 |
| 20260830193519 | 51 | 293 | 0.0 | 0.0 | 0.00 | 0.01 | 0.01 | 95 | 1029.3 |
| 20260830193018 | 51 | 293 | 0.0 | 0.0 | 0.00 | 0.01 | 0.01 | 95 | 1029.3 |
| 20260830192517 | 52 | 293 | 0.0 | 0.0 | 0.00 | 0.01 | 0.01 | 95 | 1029.3 |
| 20260830192017 | 52 | 293 | 0.0 | 0.0 | 0.00 | 0.01 | 0.01 | 95 | 1029.2 |
| 20260830191517 | 52 | 293 | 0.0 | 0.0 | 0.00 | 0.01 | 0.01 | 95 | 1029.0 |
| 20260830191017 | 52 | 293 | 0.0 | 0.0 | 0.00 | 0.01 | 0.01 | 95 | 1029.0 |
| 20260830190518 | 52 | 293 | 0.0 | 0.0 | 0.00 | 0.01 | 0.01 | 95 | 1029.1 |
| 20260830190025 | 52 | 313 | 0.0 | 0.0 | 0.00 | 0.01 | 0.01 | 95 | 1029.0 |
| 20260830185515 | 52 | 313 | 0.0 | 0.0 | 0.00 | 0.01 | 0.01 | 95 | 1029.2 |
| 20260830185015 | 52 | 313 | 0.0 | 0.0 | 0.00 | 0.01 | 0.01 | 95 | 1029.3 |
| 20260830184526 | 52 | 313 | 0.0 | 0.0 | 0.00 | 0.01 | 0.01 | 95 | 1029.2 |
| 20260830184014 | 52 | 313 | 0.0 | 0.0 | 0.01 | 0.01 | 0.01 | 96 | 1029.2 |
| 20260830183514 | 52 | 313 | 0.0 | 0.0 | 0.01 | 0.01 | 0.01 | 95 | 1029.2 |
| 20260830183021 | 52 | 313 | 0.0 | 0.0 | 0.01 | 0.01 | 0.01 | 95 | 1029.2 |
| 20260830182514 | 52 | 313 | 0.0 | 0.0 | 0.01 | 0.01 | 0.01 | 95 | 1029.2 |
| 20260830182015 | 52 | 313 | 0.0 | 0.0 | 0.01 | 0.01 | 0.01 | 95 | 1029.2 |
| 20260830181513 | 52 | 313 | 0.0 | 0.0 | 0.01 | 0.01 | 0.01 | 95 | 1029.2 |
| 20260830181011 | 52 | 313 | 0.0 | 0.0 | 0.01 | 0.01 | 0.01 | 95 | 1029.3 |
| 20260830180511 | 52 | 313 | 0.0 | 0.0 | 0.01 | 0.01 | 0.01 | 95 | 1029.3 |
| 20260830180017 | 52 | 313 | 0.0 | 0.0 | 0.01 | 0.01 | 0.01 | 95 | 1029.2 |
| 20260830175510 | 52 | 313 | 0.0 | 0.0 | 0.01 | 0.01 | 0.01 | 95 | 1029.2 |
| 20260830175010 | 52 | 313 | 0.0 | 0.0 | 0.01 | 0.01 | 0.01 | 95 | 1029.2 |
| 20260830174513 | 52 | 313 | 0.0 | 0.0 | 0.01 | 0.01 | 0.01 | 95 | 1029.2 |
| 20260830174009 | 52 | 313 | 0.0 | 0.0 | 0.00 | 0.00 | 0.00 | 95 | 1029.2 |
| 20260830173509 | 52 | 313 | 0.0 | 0.0 | 0.00 | 0.00 | 0.00 | 95 | 1029.2 |
| 20260830173009 | 52 | 313 | 0.0 | 0.0 | 0.00 | 0.00 | 0.00 | 95 | 1029.2 |
| 20260830172513 | 52 | 313 | 0.0 | 0.0 | 0.00 | 0.00 | 0.00 | 95 | 1029.2 |
| 20260830172008 | 52 | 313 | 0.0 | 0.0 | 0.00 | 0.00 | 0.00 | 95 | 1029.3 |
| 20260830171508 | 52 | 313 | 0.0 | 0.0 | 0.00 | 0.00 | 0.00 | 95 | 1029.2 |
| 20260830171009 | 53 | 313 | 0.0 | 0.0 | 0.00 | 0.00 | 0.00 | 95 | 1029.2 |
| 20260830170512 | 53 | 313 | 0.0 | 0.0 | 0.00 | 0.00 | 0.00 | 95 | 1029.2 |
| 20260830170008 | 53 | 313 | 0.0 | 0.0 | 0.00 | 0.00 | 0.00 | 94 | 1029.3 |
| 20260830165505 | 53 | 313 | 0.0 | 0.0 | 0.00 | 0.00 | 0.00 | 95 | 1029.2 |
| 20260830165005 | 53 | 313 | 0.0 | 0.0 | 0.00 | 0.00 | 0.00 | 94 | 1029.3 |
| 20260830164504 | 53 | 313 | 0.0 | 0.0 | 0.00 | 0.00 | 0.00 | 94 | 1029.3 |
| 20260830164006 | 53 | 313 | 0.0 | 0.0 | 0.00 | 0.00 | 0.00 | 94 | 1029.2 |
| 20260830163503 | 53 | 313 | 0.0 | 0.0 | 0.00 | 0.00 | 0.00 | 94 | 1029.3 |
| 20260830163003 | 53 | 313 | 0.0 | 0.0 | 0.00 | 0.00 | 0.00 | 95 | 1029.3 |
| 20260830162504 | 53 | 313 | 0.0 | 0.0 | 0.00 | 0.00 | 0.00 | 95 | 1029.3 |
| 20260830162002 | 53 | 313 | 0.0 | 0.0 | 0.00 | 0.00 | 0.00 | 94 | 1029.3 |
| 20260830161503 | 53 | 313 | 0.0 | 0.0 | 0.00 | 0.00 | 0.00 | 94 | 1029.4 |
| 20260830161001 | 53 | 313 | 0.0 | 0.0 | 0.00 | 0.00 | 0.00 | 94 | 1029.2 |
| 20260830160502 | 53 | 313 | 0.0 | 0.0 | 0.00 | 0.00 | 0.00 | 94 | 1029.4 |
| 20260830160001 | 53 | 313 | 0.0 | 0.0 | 0.00 | 0.01 | 0.00 | 94 | 1029.4 |
| 20260830155600 | 54 | 313 | 0.0 | 0.0 | 0.00 | 0.01 | 0.00 | 94 | 1029.4 |
| 20260830155103 | 54 | 313 | 0.0 | 0.0 | 0.00 | 0.01 | 0.00 | 94 | 1029.5 |
| 20260830154600 | 54 | 313 | 0.0 | 0.0 | 0.00 | 0.01 | 0.00 | 94 | 1029.5 |
| 20260830154059 | 54 | 313 | 0.0 | 0.0 | 0.00 | 0.01 | 0.00 | 94 | 1029.5 |
| 20260830153559 | 54 | 313 | 0.0 | 0.0 | 0.00 | 0.01 | 0.00 | 94 | 1029.6 |
| 20260830153059 | 54 | 313 | 0.0 | 0.0 | 0.00 | 0.01 | 0.00 | 94 | 1029.6 |
| 20260830152559 | 54 | 313 | 0.0 | 0.0 | 0.00 | 0.01 | 0.00 | 94 | 1029.6 |
| 20260830152057 | 54 | 313 | 0.0 | 0.0 | 0.00 | 0.01 | 0.00 | 94 | 1029.6 |
| 20260830151557 | 54 | 313 | 0.0 | 0.0 | 0.00 | 0.01 | 0.00 | 94 | 1029.7 |
| 20260830151057 | 53 | 313 | 0.0 | 0.0 | 0.00 | 0.01 | 0.00 | 93 | 1029.7 |
| 20260830150557 | 53 | 313 | 0.0 | 0.0 | 0.00 | 0.01 | 0.00 | 93 | 1029.7 |
| 20260830150058 | 53 | 313 | 0.0 | 0.0 | 0.00 | 0.01 | 0.00 | 93 | 1029.7 |
| 20260830145556 | 54 | 313 | 0.0 | 0.0 | 0.00 | 0.01 | 0.00 | 93 | 1029.7 |
| 20260830145056 | 54 | 313 | 0.0 | 0.0 | 0.00 | 0.01 | 0.00 | 93 | 1029.8 |
| 20260830144605 | 54 | 313 | 0.0 | 0.0 | 0.00 | 0.01 | 0.00 | 93 | 1029.8 |
| 20260830144054 | 53 | 318 | 0.0 | 0.0 | 0.00 | 0.01 | 0.00 | 93 | 1029.8 |
| 20260830143557 | 53 | 318 | 0.0 | 0.0 | 0.00 | 0.01 | 0.00 | 92 | 1029.7 |
| 20260830143053 | 53 | 318 | 0.0 | 0.0 | 0.00 | 0.01 | 0.00 | 92 | 1029.8 |
| 20260830142555 | 53 | 318 | 0.0 | 0.0 | 0.00 | 0.01 | 0.00 | 92 | 1029.7 |
| 20260830142052 | 54 | 318 | 0.0 | 0.0 | 0.00 | 0.01 | 0.00 | 91 | 1029.8 |
| 20260830141551 | 54 | 318 | 0.0 | 0.0 | 0.00 | 0.01 | 0.00 | 91 | 1029.6 |
| 20260830141049 | 54 | 318 | 0.0 | 0.0 | 0.00 | 0.01 | 0.00 | 90 | 1029.7 |
| 20260830140548 | 54 | 318 | 0.0 | 0.0 | 0.00 | 0.01 | 0.00 | 90 | 1029.7 |
| 20260830140047 | 55 | 318 | 0.0 | 0.0 | 0.00 | 0.01 | 0.00 | 90 | 1029.6 |
| 20260830135547 | 55 | 318 | 0.0 | 0.0 | 0.00 | 0.01 | 0.01 | 90 | 1029.7 |
| 20260830135047 | 55 | 318 | 0.0 | 0.0 | 0.00 | 0.01 | 0.01 | 90 | 1029.7 |
| 20260830134549 | 55 | 318 | 0.0 | 0.0 | 0.00 | 0.01 | 0.01 | 89 | 1029.6 |
| 20260830134047 | 56 | 318 | 0.0 | 0.0 | 0.00 | 0.01 | 0.01 | 89 | 1029.6 |
| 20260830133547 | 56 | 318 | 0.0 | 0.0 | 0.00 | 0.01 | 0.01 | 89 | 1029.7 |
| 20260830133054 | 56 | 318 | 0.0 | 0.0 | 0.00 | 0.01 | 0.01 | 90 | 1029.7 |
| 20260830132547 | 56 | 318 | 0.0 | 0.0 | 0.00 | 0.01 | 0.01 | 90 | 1029.6 |
| 20260830132047 | 56 | 318 | 0.0 | 0.0 | 0.00 | 0.01 | 0.01 | 89 | 1029.6 |
| 20260830131546 | 56 | 318 | 0.0 | 0.0 | 0.00 | 0.01 | 0.01 | 90 | 1029.7 |
| 20260830131046 | 56 | 330 | 0.0 | 0.0 | 0.00 | 0.01 | 0.01 | 90 | 1029.7 |
| 20260830130546 | 56 | 330 | 0.0 | 0.0 | 0.00 | 0.01 | 0.01 | 90 | 1029.7 |
| 20260830130045 | 55 | 330 | 0.0 | 0.0 | 0.00 | 0.01 | 0.01 | 90 | 1029.7 |
| 20260830125544 | 55 | 330 | 0.0 | 0.0 | 0.00 | 0.01 | 0.01 | 90 | 1029.8 |
| 20260830125044 | 55 | 330 | 0.0 | 0.0 | 0.00 | 0.01 | 0.01 | 91 | 1029.7 |
| 20260830124545 | 55 | 330 | 0.0 | 0.0 | 0.00 | 0.01 | 0.01 | 91 | 1029.7 |
| 20260830124047 | 55 | 330 | 0.0 | 0.0 | 0.00 | 0.01 | 0.01 | 91 | 1029.9 |
| 20260830123545 | 56 | 330 | 0.0 | 0.0 | 0.00 | 0.01 | 0.01 | 91 | 1029.9 |
| 20260830123045 | 55 | 330 | 0.0 | 0.0 | 0.00 | 0.01 | 0.01 | 90 | 1029.9 |
| 20260830122544 | 56 | 330 | 0.0 | 0.0 | 0.00 | 0.01 | 0.01 | 90 | 1029.9 |
| 20260830122044 | 56 | 330 | 0.0 | 0.0 | 0.00 | 0.01 | 0.01 | 89 | 1029.8 |
| 20260830121544 | 56 | 330 | 0.0 | 0.0 | 0.00 | 0.01 | 0.01 | 89 | 1029.8 |
| 20260830121043 | 56 | 330 | 0.0 | 0.0 | 0.00 | 0.01 | 0.01 | 88 | 1029.7 |
| 20260830120543 | 56 | 330 | 0.0 | 0.0 | 0.00 | 0.01 | 0.01 | 88 | 1029.6 |
| 20260830120044 | 56 | 330 | 0.0 | 0.0 | 0.00 | 0.01 | 0.01 | 87 | 1029.6 |
| 20260830115543 | 57 | 330 | 0.0 | 0.0 | 0.00 | 0.01 | 0.01 | 88 | 1029.6 |
| 20260830115043 | 57 | 330 | 0.0 | 0.0 | 0.00 | 0.01 | 0.01 | 87 | 1029.5 |
| 20260830114556 | 57 | 330 | 0.0 | 0.0 | 0.00 | 0.01 | 0.01 | 87 | 1029.5 |
| 20260830114042 | 57 | 330 | 0.0 | 0.0 | 0.00 | 0.01 | 0.01 | 87 | 1029.5 |
| 20260830113542 | 57 | 330 | 0.0 | 0.0 | 0.00 | 0.01 | 0.01 | 87 | 1029.6 |
| 20260830113042 | 57 | 330 | 0.0 | 0.0 | 0.00 | 0.01 | 0.01 | 87 | 1029.6 |
| 20260830112542 | 58 | 330 | 0.0 | 0.0 | 0.00 | 0.01 | 0.01 | 87 | 1029.6 |
| 20260830112046 | 58 | 330 | 0.0 | 0.0 | 0.00 | 0.01 | 0.01 | 87 | 1029.6 |
| 20260830111542 | 58 | 330 | 0.0 | 0.0 | 0.00 | 0.01 | 0.01 | 86 | 1029.6 |
| 20260830111042 | 58 | 330 | 0.0 | 0.0 | 0.00 | 0.01 | 0.01 | 86 | 1029.6 |
| 20260830110548 | 58 | 330 | 0.0 | 0.0 | 0.00 | 0.01 | 0.01 | 86 | 1029.5 |